Location: Newark
(49.3808°N, 3.1844°E)
Time: 05:54:45
(UTC+00:00)

Altair - All Passes

Search period start: 18 November 2019 00:00
Search period end: 28 November 2019 00:00
Orbit: 1502 x 1682 km, 47.2° (Epoch: 17 November)

Date Brightness Start Highest point End Pass type
(mag) Time Alt. Az. Time Alt. Az. Time Alt. Az.
18 Nov - 00:29:59 10° SE 00:30:35 10° ESE 00:31:12 10° ESE visible
18 Nov - 02:24:53 10° SSW 02:33:01 37° SE 02:41:11 10° E visible
18 Nov - 04:27:39 10° WSW 04:36:44 71° SSE 04:46:00 10° E visible
18 Nov - 06:32:01 10° W 06:41:12 77° S 06:50:40 10° ESE daylight
18 Nov - 08:36:33 10° WNW 08:45:20 49° SSW 08:54:24 10° SE daylight
18 Nov - 10:42:31 10° W 10:48:20 18° SW 10:54:17 10° SSW daylight
19 Nov - 02:00:00 10° SSW 02:07:58 35° SE 02:15:58 10° E visible
19 Nov - 04:02:33 10° WSW 04:11:37 69° SSE 04:20:50 10° E visible
19 Nov - 06:06:52 10° W 06:16:03 78° S 06:25:29 10° ESE visible
19 Nov - 08:11:24 10° WNW 08:20:14 52° SSW 08:29:21 10° SE daylight
19 Nov - 10:17:06 10° W 10:23:20 20° SW 10:29:42 10° S daylight
20 Nov - 01:35:08 10° SSW 01:42:56 33° SE 01:50:45 10° E visible
20 Nov - 03:37:27 10° WSW 03:46:29 67° SSE 03:55:39 10° E visible
20 Nov - 05:41:43 10° W 05:50:55 79° S 06:00:19 10° E visible
20 Nov - 07:46:15 10° WNW 07:55:08 54° SSW 08:04:17 10° SE daylight
20 Nov - 09:51:44 10° W 09:58:19 22° SW 10:05:03 10° S daylight
21 Nov - 01:10:18 10° SSW 01:17:54 30° SE 01:25:30 10° E visible
21 Nov - 03:12:22 10° WSW 03:21:23 65° SSE 03:30:29 10° E visible
21 Nov - 05:16:35 10° W 05:25:46 79° S 05:35:08 10° E visible
21 Nov - 07:21:06 10° W 07:30:02 57° SSW 07:39:13 10° SE daylight
21 Nov - 09:26:24 10° W 09:33:18 24° SW 09:40:21 10° S daylight
22 Nov - 00:45:29 10° S 00:52:53 28° SE 01:00:14 10° E visible
22 Nov - 02:47:17 10° SW 02:56:17 62° SSE 03:05:19 10° E visible
22 Nov - 04:51:26 10° W 05:00:37 80° S 05:09:57 10° E visible
22 Nov - 06:55:58 10° W 07:04:55 59° SSW 07:14:07 10° SE daylight
22 Nov - 09:01:06 10° W 09:08:16 26° SW 09:15:36 10° S daylight
23 Nov - 00:20:43 10° S 00:27:51 26° SE 00:34:59 10° E visible
23 Nov - 02:22:13 10° SW 02:31:10 60° SSE 02:40:09 10° E visible
23 Nov - 04:26:17 10° W 04:35:28 80° S 04:44:47 10° E visible
23 Nov - 06:30:49 10° W 06:39:49 61° SSW 06:49:02 10° SE visible
23 Nov - 08:35:50 10° W 08:43:15 28° SW 08:50:49 10° S daylight
23 Nov - 23:55:59 10° S 00:02:51 24° SE 00:09:40 10° E visible
24 Nov - 01:57:09 10° SW 02:06:04 57° SSE 02:15:00 10° E visible
24 Nov - 04:01:08 10° W 04:10:19 79° S 04:19:37 10° E visible
24 Nov - 06:05:40 10° W 06:14:42 64° SSW 06:23:55 10° ESE visible
24 Nov - 08:10:36 10° W 08:18:12 30° SW 08:25:59 10° SSE daylight
24 Nov - 23:31:18 10° S 23:37:51 22° SE 23:44:20 10° E night (unlit)
25 Nov - 01:32:06 10° SW 01:40:59 55° SSE 01:49:49 10° ENE visible
25 Nov - 03:36:00 10° W 03:45:11 79° S 03:54:26 10° E visible
25 Nov - 05:40:32 10° W 05:49:35 66° SSW 05:58:48 10° ESE visible
25 Nov - 07:45:22 10° W 07:53:10 32° SW 08:01:09 10° SSE daylight
25 Nov - 23:06:40 10° S 23:12:51 20° SE 23:18:58 10° E night (unlit)
26 Nov - 01:07:04 10° SW 01:15:53 52° SSE 01:24:40 10° ENE visible
26 Nov - 03:10:51 10° WSW 03:20:02 78° S 03:29:16 10° E visible
26 Nov - 05:15:23 10° W 05:24:27 68° SSW 05:33:42 10° ESE visible
26 Nov - 07:20:09 10° W 07:28:07 34° SW 07:36:16 10° SSE daylight
26 Nov - 22:42:05 10° SSE 22:47:52 18° SE 22:53:34 10° E night (unlit)
27 Nov - 00:42:02 10° SW 00:50:48 50° SSE 00:59:30 10° ENE visible
27 Nov - 02:45:43 10° WSW 02:54:53 78° S 03:04:06 10° E visible
27 Nov - 04:50:14 10° W 04:59:20 70° SSW 05:08:34 10° ESE visible
27 Nov - 06:54:57 10° W 07:03:04 36° SW 07:11:21 10° SSE daylight
27 Nov - 22:17:35 10° SSE 22:22:52 17° SE 22:28:05 10° E night (unlit)
